Home   Weather   Neu-Ulm   Past weeks

Flag for Germany Past Weather in Neu-Ulm, Bavaria, Germany — Yesterday and Last 2 Weeks

46 °F


Feels Like: 46 °F
Forecast: 44 / 57 °F
Wind: 1 mph from Northeast

Location: Laupheim Airport

Current Time: Oct 24, 2016 at 9:09:41 AM

Latest Report: Oct 24, 2016 at 8:20 AM

Visibility: 4 mi

Pressure: 29.95 "Hg

Humidity: 93%

Dew Point: 45 °F

Location of Neu-UlmLocation

Past Weather in Neu-Ulm — Graph


Neu-Ulm Temperature Yesterday

Maximum temperature yesterday: 48 °F (at 5:20 PM)
Minimum temperature yesterday: 30 °F (at 5:20 AM)
Average temperature yesterday: 40 °F

High & Low Weather Summary for the Past Weeks

High63 °F (Oct 16, 3:20 PM)100% (Oct 10, 5:20 AM)30.24 "Hg (Oct 10, 5:20 AM)
Low30 °F (Oct 23, 5:20 AM)54% (Oct 9, 3:20 PM)29.68 "Hg (Oct 14, 5:20 PM)
Average45 °F86%30.04 "Hg
* Reported Oct 9 7:20 AM — Oct 24 7:20 AM, Neu-Ulm, Weather by CustomWeather, © 2016

Note: Actual official high and low records may vary slightly from our data, if they occured in-between our weather recording intervals... More about our weather records


Neu-Ulm Weather History for the Previous 24 Hours

Scroll right to see more
Time TempWeatherWind HumidityBarometerVisibility
7:20 AM
Mon, Oct 24
45 °FFog.1 mph93%29.95 "Hg3 mi
6:20 AM46 °FFog.1 mph100%29.95 "Hg3 mi
5:20 AM46 °FPassing clouds.5 mph93%29.95 "Hg4 mi
5:02 AM46 °FFog.6 mph93%29.95 "Hg3 mi
4:20 AM46 °FFog.6 mph100%29.95 "Hg2 mi
3:20 AM46 °FFog.5 mph93%29.92 "Hg2 mi
2:20 AM46 °FFog.2 mph93%29.92 "Hg2 mi
1:20 AM46 °FFog.2 mph93%29.92 "Hg1 mi
12:20 AM46 °FLight rain. Fog.2 mph93%29.92 "Hg1 mi
11:20 PM
Sun, Oct 23
46 °FLight rain. Fog.1 mph93%29.92 "Hg1 mi
10:20 PM46 °FFog.1 mph93%29.89 "Hg2 mi
9:20 PM46 °FLight rain. Fog.1 mph93%29.92 "Hg2 mi
8:20 PM45 °FLight rain. Fog.2 mph100%29.92 "Hg2 mi
7:20 PM46 °FLight rain. Fog.2 mph93%29.89 "Hg3 mi
6:20 PM46 °FLight rain. Partly cloudy.1 mph93%29.89 "Hg4 mi
5:20 PM48 °FBroken clouds.2 mph87%29.86 "Hg5 mi
4:20 PM46 °FBroken clouds.3 mph87%29.86 "Hg6 mi
3:20 PM46 °FPartly sunny.1 mph87%29.89 "Hg6 mi
2:20 PM46 °FLight rain. Partly sunny.2 mph82%29.89 "HgN/A
1:20 PM46 °FPartly sunny.3 mph82%29.86 "HgN/A
12:20 PM43 °FBroken clouds.3 mph87%29.89 "HgN/A
11:20 AM41 °FPartly sunny.2 mph87%29.89 "Hg5 mi
10:20 AM37 °FFog.3 mph93%29.89 "Hg3 mi
9:20 AM34 °FFog.2 mph100%29.89 "Hg2 mi
Weather by CustomWeather, © 2016

See weather overviewHow to use our weather pages